Starlink 11724

operational
NORAD ID: 64124 Int'l Des: 2025-111 Owner: SPXS Country: US Constellation: starlink
LEOCIRCULAR

Starlink 11724について

説明を読み込み中...

リアルタイム位置

3D地球を読み込み中...

次回通過

高度履歴

Altitude vs Time

uPlot chart will show altitude changes over time

軌道要素

1 64124U 25111B 25307.56048367 .00143201 00000-0 10983-2 0 9997
2 64124 42.9986 13.9943 0001745 276.3887 83.6782 15.70884974 26807
Epoch: Nov 3, 2025 • Age: 25 hours

現在のステータス

高度 359.6 km
速度 7.70 km/s
衛星直下点 42.64°N, 170.39°W
打ち上げ日 May 24, 2025
運用期間 0.4 years
タイプ internet

技術仕様

分類 Payload
質量 960.00 kg
乾燥質量 910.00 kg
総質量 960.00 kg
長さ 0.30 m
直径 4.10 m
スパン 29.00 m
形状 Box + pan
製造者 SPXS
バスタイプ Starlink V2MD
フェーズステータス In Orbit
所有者/国 SPXS/US

大規模コンステレーション

Loading constellations...